#timestamp,LO_Frequency,Hit,StdDev 
1513717215.4,286047002.0,N
1513717235.2,286047002.1,N
1513717255.1,286047001.3,N
1513717256.0,286047001.3,N
1513717275.8,286047002.4,N
1513717295.6,286046999.7,N
1513717315.5,286047000.6,N
1513717335.3,286046999.8,N
1513717355.1,286047001.5,N
1513717375.9,286047002.4,N
1513717395.7,286047001.5,N
1513717415.6,286047003.2,N
1513717435.4,286047005.4,Y
1513717455.2,286047001.8,P
1513717475.1,286047000.0,N
1513717476.0,286047000.0,N
1513717495.8,286047001.1,N
1513717515.7,286047000.8,N
1513717535.5,286046998.6,N
1513717555.3,286046998.5,N
1513717575.2,286047000.8,N
1513717595.0,286047000.8,N
1513717595.9,286047000.8,N
1513717615.7,286047000.7,N
1513717635.6,286047000.8,N
1513717655.4,286046998.2,N
1513717675.3,286046998.1,N
1513717695.1,286046998.5,N
1513717715.8,286046999.2,N
1513717735.7,286046998.8,N
1513717755.5,286046999.3,N
1513717775.4,286046998.2,N
1513717795.2,286047000.6,N
1513717815.0,286046999.1,N
1513717815.9,286046999.1,N
1513717835.8,286046998.7,N
1513717855.6,286046998.1,N
1513717875.5,286047001.2,N
1513717895.3,286046998.3,N
1513717915.1,286047000.7,N
1513717935.9,286047001.1,N
1513717955.7,286047001.1,N
1513717975.5,286047000.6,N
1513717995.4,286047001.4,N
1513718015.2,286047000.0,N
1513718035.1,286046999.9,N
1513718036.0,286046999.9,N
1513718055.8,286047001.0,N
1513718075.6,286047000.0,N
1513718095.5,286046998.1,N
1513718115.3,286046999.8,N
1513718135.1,286047000.8,N
1513718155.9,286046999.8,N
1513718175.7,286046999.9,N
1513718195.6,286047000.3,N
1513718215.4,286047002.3,N
1513718235.2,286047000.2,N
1513718255.1,286047002.6,N
1513718256.0,286047002.6,N
1513718275.8,286047000.1,N
1513718295.7,286047002.6,N
1513718315.5,286047001.6,N
1513718335.3,286046999.7,N
1513718355.2,286047000.3,N
1513718375.9,286047000.0,N
1513718395.7,286047000.2,N
1513718415.6,286047000.4,N
1513718435.4,286046998.8,N
1513718455.3,286046998.5,N
1513718475.1,286047001.0,N
1513718495.8,286046998.8,N
1513718515.7,286046998.2,N
1513718535.5,286046998.9,N
1513718555.4,286046998.7,N
1513718575.2,286046998.3,N
1513718595.0,286047000.7,N
1513718595.9,286047000.7,N
1513718615.8,286046999.9,N
1513718635.6,286047000.5,N
1513718655.5,286046999.8,N
1513718675.3,286046999.8,N
1513718695.1,286047000.7,N
1513718715.9,286047001.1,N
1513718735.7,286046998.2,N
1513718755.6,286047001.2,N
1513718775.4,286047000.5,N
1513718795.2,286047000.0,N
1513718815.1,286047000.0,N
1513718816.0,286047000.0,N
1513718835.8,286047001.2,N
1513718855.6,286047000.7,N
1513718875.5,286047001.2,N
1513718895.3,286047000.6,N
1513718915.2,286047002.2,N
1513718935.9,286047002.5,N
1513718955.7,286047001.6,N
1513718975.6,286047002.3,N
1513718995.4,286047002.4,N
1513719015.2,286047000.2,N
1513719035.1,286047001.0,N
1513719036.0,286047001.0,N
1513719055.8,286047000.3,N
1513719075.7,286047001.0,N
1513719095.5,286047000.6,N
1513719115.4,286047000.0,N
1513719135.2,286047001.8,N
1513719155.0,286047002.5,N
1513719155.9,286047002.5,N
1513719175.8,286047002.7,N
1513719195.6,286047001.7,N
1513719245.5,286047004.4,E
1513719255.4,286047002.7,N
1513719275.2,286046998.6,P
1513719295.1,286047000.0,N
1513719296.0,286047000.0,N
1513719315.8,286047001.2,N
1513719335.7,286046999.4,N
1513719355.5,286046996.6,N
1513719375.3,286046999.6,N
1513719395.2,286046997.8,N
1513719415.0,286046995.4,N
1513719415.9,286046995.4,N
1513719435.7,286046996.8,N
1513719455.6,286046997.8,N
1513719475.4,286046997.8,N
1513719495.3,286046996.7,N
1513719515.1,286046994.9,N
1513719516.0,286046994.9,N
1513719535.8,286046995.3,N
1513719555.7,286046996.9,N
1513719575.5,286046997.3,N
1513719595.3,286046998.0,N
1513719615.2,286046995.4,N
1513719635.0,286046997.6,N
1513719635.9,286046997.6,N
1513719655.8,286046996.8,N
1513719675.6,286046995.2,N
1513719695.4,286046995.1,N
1513719715.3,286046995.9,N
1513719735.1,286046996.1,N
1513719755.8,286046996.0,N
1513719775.7,286046996.4,N
1513719795.5,286046993.8,Y
1513719815.4,286046996.7,P
1513719835.2,286046996.8,P
1513719855.0,286046997.0,P
1513719855.9,286046997.0,Y
1513719875.8,286047000.5,P
1513719895.6,286047000.1,N
1513719915.5,286047002.1,N
1513719935.3,286047001.5,N
1513719955.1,286047001.7,N
1513719975.9,286047004.3,N
1513719995.7,286047004.0,N
1513720015.5,286047005.5,N
1513720035.4,286047004.2,N
1513720055.2,286047006.0,N
1513720075.1,286047006.0,N
1513720076.0,286047006.0,N
1513720095.8,286047005.5,N
1513720115.6,286047003.1,N
1513720135.5,286047006.0,N
1513720155.3,286047004.2,N
1513720175.1,286047003.1,N
1513720195.9,286047005.7,N
1513720215.7,286047002.9,N
1513720235.6,286047003.9,N
1513720255.4,286047004.4,N
1513720275.2,286047003.9,N
1513720295.1,286047004.3,N
1513720296.0,286047004.3,N
1513720315.8,286047004.0,N
1513720335.6,286047004.4,N
1513720355.5,286047006.0,N
1513720375.3,286047002.9,N
1513720395.2,286047003.0,N
1513720415.9,286047001.5,N
1513720435.7,286047000.4,N
1513720455.6,286047002.6,N
1513720475.4,286047002.3,N
1513720495.2,286047004.4,N
1513720515.1,286047001.7,N
1513720516.0,286047001.7,N
1513720535.8,286047004.0,N
1513720555.7,286047004.3,N
1513720575.5,286047004.4,N
1513720595.3,286047003.2,N
1513720615.2,286047005.9,Y
1513720635.0,286047000.2,P
1513720635.9,286047000.2,N
1513720655.8,286047001.2,N
1513720675.6,286047000.9,N
1513720695.4,286046998.1,N
1513720715.3,286046998.1,N
1513720735.1,286046999.7,N
1513720755.8,286047002.3,N
1513720775.7,286047000.4,N
1513720825.6,286047001.9,E
